Location: ?ejeti?ky
(50.4060°N, 14.9016°E)
Time: 20:36:36
(UTC+00:00)

N. Korean satellite - Visible Passes

Search period start: 03 December 2021 00:00
Search period end: 13 December 2021 00:00
Orbit: 447 x 495 km, 97.3° (Epoch: 03 December)

Date Brightness Start Highest point End Pass type
(mag) Time Alt. Az. Time Alt. Az. Time Alt. Az.
03 Dec 8.6 03:45:24 10° NE 03:48:20 27° E 03:51:14 10° SSE visible
03 Dec 7.5 05:18:41 10° NNW 05:21:27 23° WNW 05:24:13 10° WSW visible
03 Dec 8.7 15:56:51 10° SSW 16:00:02 31° W 16:03:12 10° NNW visible
04 Dec 9.7 03:17:52 10° ENE 03:19:35 13° E 03:21:19 10° ESE visible
04 Dec 6.5 04:49:48 10° N 04:53:05 48° WNW 04:56:21 10° SSW visible
05 Dec 6.5 04:21:12 10° NNE 04:24:36 74° ESE 04:27:58 10° S visible
05 Dec 8.4 05:56:28 10° NW 05:57:16 11° WNW 05:58:03 10° WNW visible
05 Dec 9.9 16:34:46 10° WSW 16:36:27 13° W 16:38:07 10° WNW visible
06 Dec 8.2 03:52:53 10° NNE 03:55:59 32° E 03:59:04 10° SSE visible
06 Dec 7.7 05:26:29 10° NNW 05:29:01 20° WNW 05:31:32 10° WSW visible
06 Dec 9.0 16:04:43 10° SSW 16:07:42 25° W 16:10:39 10° NW visible
07 Dec 9.4 03:25:04 10° NE 03:27:15 16° E 03:29:26 10° SE visible
07 Dec 6.8 04:57:27 10° N 05:00:39 39° WNW 05:03:49 10° SW visible
07 Dec 7.4 15:35:36 10° S 15:39:03 54° W 15:42:27 10° NNW visible
08 Dec 6.3 04:28:45 10° NNE 04:32:10 88° W 04:35:32 10° SSW visible
08 Dec 10.1 16:43:23 10° W 16:44:05 10° W 16:44:47 10° WNW visible
09 Dec 7.7 04:00:19 10° NNE 04:03:33 40° E 04:06:46 10° S visible
09 Dec 7.9 05:34:14 10° NNW 05:36:29 17° WNW 05:38:43 10° WSW visible
09 Dec 9.4 16:12:34 10° SW 16:15:16 21° W 16:17:58 10° NW visible
10 Dec 9.1 03:32:18 10° NE 03:35:26 18° ESE 03:37:21 10° SE visible
10 Dec 7.3 05:05:03 10° N 05:09:35 22° WSW 05:11:10 10° SW visible
10 Dec 7.9 15:43:13 10° S 15:46:33 43° W 15:49:52 10° NNW visible
11 Dec 8.0 04:36:14 10° N 04:41:33 24° SSW 04:43:00 10° SSW visible
12 Dec 8.6 04:07:41 10° NNE 04:13:13 19° S 04:14:19 10° S visible
12 Dec 8.5 05:41:57 10° NNW 05:47:18 - WSW 05:42:21 11° NW visible
12 Dec 9.6 16:20:23 10° SW 16:22:46 17° W 16:25:08 10° NW visible
